Location: Newark
(54.2500°N, 9.1833°E)
Time: 02:05:02
(UTC+00:00)

Vanguard 2 Rocket - Pass Details

Date: 11 December 2019
Orbit: 554 x 3326 km, 32.9° (Epoch: 23 January)

Event Time Altitude Azimuth Distance (km) Brightness Sun altitude
Rises 19:18:12 0° 244° (WSW) 5,845 11.7 -36.1°
Reaches altitude 10° 19:24:13 10° 228° (SW) 4,229 10.6 -37.0°
Maximum altitude 19:30:19 17° 193° (SSW) 3,022 9.5 -37.9°
Enters shadow 19:30:27 17° 192° (SSW) 3,008 9.5 -37.9°
